Saratoga-Weather Station Historical Data
Daily Summary for November 10, 2018 Units:  English    Metric   Both
Daily Weekly Monthly Yearly Custom
  High: Low: Average:
Temperature: 44.8 °F 29.1 °F 37.6 °F
Dew Point: 31.5 °F 20.5 °F 27.9 °F
Humidity: 79% 51% 68%
Wind Speed: 10.1mph 0.0mph 0.9mph
Wind Gust: 17.0mph - -
Wind- - SW
Pressure: 30.35 in 30.19 in -
Precipitation: 0.00 in    
Historical Graphs
 
 
Tabular Data for November 10, 2018
Time Temperature Dew Point Pressure Wind Wind Speed Wind Gust Humidity Rainfall Rate (Hourly) solar
00:04 40.8 °F 29.1 °F 30.19 in Calm     63% 0.00 in meteobridge W/m2
00:08 40.6 °F 29.5 °F 30.19 in Calm     64% 0.00 in meteobridge W/m2
00:13 40.6 °F 29.1 °F 30.19 in Calm     63% 0.00 in meteobridge W/m2
00:19 40.6 °F 29.5 °F 30.19 in Calm     64% 0.00 in meteobridge W/m2
00:24 40.5 °F 29.3 °F 30.19 in Calm     64% 0.00 in meteobridge W/m2
00:29 40.3 °F 29.5 °F 30.19 in Calm     65% 0.00 in meteobridge W/m2
00:34 39.9 °F 29.1 °F 30.19 in Calm   1.0 mph 65% 0.00 in meteobridge W/m2
00:39 39.9 °F 29.5 °F 30.19 in Calm   1.0 mph 66% 0.00 in meteobridge W/m2
00:44 39.7 °F 28.9 °F 30.19 in Calm   5.0 mph 65% 0.00 in meteobridge W/m2
00:48 39.7 °F 28.9 °F 30.19 in Calm   1.0 mph 65% 0.00 in meteobridge W/m2
00:54 39.6 °F 29.1 °F 30.19 in Calm   1.0 mph 66% 0.00 in meteobridge W/m2
00:58 39.6 °F 29.1 °F 30.19 in Calm   1.0 mph 66% 0.00 in meteobridge W/m2
01:04 39.6 °F 29.1 °F 30.19 in Calm     66% 0.00 in meteobridge W/m2
01:09 39.4 °F 28.9 °F 30.19 in Calm     66% 0.00 in meteobridge W/m2
01:14 39.4 °F 28.9 °F 30.19 in Calm     66% 0.00 in meteobridge W/m2
01:16 39.4 °F 28.9 °F 30.19 in Calm     66% 0.00 in meteobridge W/m2
01:22 39.4 °F 28.9 °F 30.19 in Calm     66% 0.00 in meteobridge W/m2
01:28 39.2 °F 28.8 °F 30.19 in Calm   2.0 mph 66% 0.00 in meteobridge W/m2
01:33 39.0 °F 28.6 °F 30.19 in Calm     66% 0.00 in meteobridge W/m2
01:39 39.0 °F 28.6 °F 30.19 in Calm     66% 0.00 in meteobridge W/m2
01:43 39.0 °F 28.6 °F 30.19 in Calm     66% 0.00 in meteobridge W/m2
01:48 39.0 °F 28.6 °F 30.19 in Calm   1.0 mph 66% 0.00 in meteobridge W/m2
01:54 39.0 °F 28.6 °F 30.20 in Calm   2.0 mph 66% 0.00 in meteobridge W/m2
01:59 39.0 °F 28.9 °F 30.19 in Calm   1.0 mph 67% 0.00 in meteobridge W/m2
02:04 39.0 °F 28.6 °F 30.20 in Calm     66% 0.00 in meteobridge W/m2
02:09 39.0 °F 28.9 °F 30.20 in Calm     67% 0.00 in meteobridge W/m2
02:14 39.0 °F 28.9 °F 30.20 in Calm     67% 0.00 in meteobridge W/m2
02:19 39.0 °F 28.9 °F 30.20 in WNW 2.9 mph 3.0 mph 67% 0.00 in meteobridge W/m2
02:24 39.0 °F 28.9 °F 30.20 in ENE 2.0 mph 3.0 mph 67% 0.00 in meteobridge W/m2
02:28 39.0 °F 29.7 °F 30.20 in Calm   4.0 mph 69% 0.00 in meteobridge W/m2
02:34 39.0 °F 29.7 °F 30.20 in Calm     69% 0.00 in meteobridge W/m2
02:35 39.0 °F 29.7 °F 30.20 in NE 0.9 mph 3.0 mph 69% 0.00 in meteobridge W/m2
02:43 39.0 °F 30.0 °F 30.20 in Calm   4.0 mph 70% 0.00 in meteobridge W/m2
02:49 38.8 °F 30.2 °F 30.20 in Calm   4.0 mph 71% 0.00 in meteobridge W/m2
02:53 38.8 °F 30.2 °F 30.21 in Calm     71% 0.00 in meteobridge W/m2
02:59 38.8 °F 31.3 °F 30.21 in Calm   5.0 mph 74% 0.00 in meteobridge W/m2
03:04 38.7 °F 31.5 °F 30.21 in Calm   5.0 mph 75% 0.00 in meteobridge W/m2
03:09 38.7 °F 31.5 °F 30.21 in Calm   2.0 mph 75% 0.00 in meteobridge W/m2
03:12 38.5 °F 31.3 °F 30.21 in Calm   5.0 mph 75% 0.00 in meteobridge W/m2
03:19 38.3 °F 31.5 °F 30.21 in NNW 2.9 mph 8.0 mph 76% 0.00 in meteobridge W/m2
03:24 38.1 °F 31.3 °F 30.22 in NE 4.0 mph 4.0 mph 76% 0.00 in meteobridge W/m2
03:29 37.9 °F 31.5 °F 30.22 in Calm   6.0 mph 77% 0.00 in meteobridge W/m2
03:33 37.9 °F 31.1 °F 30.22 in Calm     76% 0.00 in meteobridge W/m2
03:39 37.8 °F 31.3 °F 30.22 in Calm   3.0 mph 77% 0.00 in meteobridge W/m2
03:44 37.6 °F 31.1 °F 30.22 in Calm   2.0 mph 77% 0.00 in meteobridge W/m2
03:49 37.4 °F 30.9 °F 30.22 in NW 0.9 mph 5.0 mph 77% 0.00 in meteobridge W/m2
03:54 37.2 °F 30.7 °F 30.22 in Calm   5.0 mph 77% 0.00 in meteobridge W/m2
03:59 37.0 °F 30.6 °F 30.21 in Calm   1.0 mph 77% 0.00 in meteobridge W/m2
04:04 36.9 °F 30.4 °F 30.22 in Calm   5.0 mph 77% 0.00 in meteobridge W/m2
04:09 36.7 °F 30.2 °F 30.22 in NW 0.9 mph 3.0 mph 77% 0.00 in meteobridge W/m2
04:14 36.3 °F 30.2 °F 30.22 in North 0.9 mph 2.0 mph 78% 0.00 in meteobridge W/m2
04:18 36.1 °F 30.0 °F 30.22 in Calm   1.0 mph 78% 0.00 in meteobridge W/m2
04:24 36.0 °F 29.8 °F 30.22 in Calm   8.0 mph 78% 0.00 in meteobridge W/m2
04:28 36.0 °F 29.8 °F 30.22 in Calm   6.0 mph 78% 0.00 in meteobridge W/m2
04:34 35.8 °F 29.7 °F 30.22 in West 6.0 mph 7.0 mph 78% 0.00 in meteobridge W/m2
04:39 35.8 °F 29.7 °F 30.22 in NE 10.1 mph 11.0 mph 78% 0.00 in meteobridge W/m2
04:44 35.8 °F 29.7 °F 30.22 in ENE 2.0 mph 15.0 mph 78% 0.00 in meteobridge W/m2
04:49 35.8 °F 29.7 °F 30.22 in WNW 0.9 mph 6.0 mph 78% 0.00 in meteobridge W/m2
04:54 35.8 °F 29.7 °F 30.23 in NNW 0.9 mph 6.0 mph 78% 0.00 in meteobridge W/m2
04:58 35.8 °F 29.7 °F 30.23 in Calm   2.0 mph 78% 0.00 in meteobridge W/m2
05:04 35.6 °F 29.1 °F 30.23 in NW 2.0 mph 2.0 mph 77% 0.00 in meteobridge W/m2
05:09 35.6 °F 29.5 °F 30.23 in North 2.0 mph 4.0 mph 78% 0.00 in meteobridge W/m2
05:14 35.4 °F 29.3 °F 30.23 in Calm   8.0 mph 78% 0.00 in meteobridge W/m2
05:19 35.4 °F 29.3 °F 30.23 in Calm   4.0 mph 78% 0.00 in meteobridge W/m2
05:24 35.4 °F 28.9 °F 30.23 in Calm   3.0 mph 77% 0.00 in meteobridge W/m2
05:29 35.4 °F 29.3 °F 30.23 in Calm   8.0 mph 78% 0.00 in meteobridge W/m2
05:34 35.2 °F 29.1 °F 30.24 in Calm   6.0 mph 78% 0.00 in meteobridge W/m2
05:39 35.2 °F 28.8 °F 30.24 in Calm   1.0 mph 77% 0.00 in meteobridge W/m2
05:44 35.1 °F 28.9 °F 30.24 in Calm   9.0 mph 78% 0.00 in meteobridge W/m2
05:49 34.9 °F 28.8 °F 30.24 in Calm   5.0 mph 78% 0.00 in meteobridge W/m2
05:53 34.7 °F 28.6 °F 30.24 in Calm   6.0 mph 78% 0.00 in meteobridge W/m2
05:59 34.5 °F 28.4 °F 30.24 in Calm   3.0 mph 78% 0.00 in meteobridge W/m2
06:04 34.3 °F 28.2 °F 30.24 in Calm   2.0 mph 78% 0.00 in meteobridge W/m2
06:08 34.2 °F 28.0 °F 30.24 in Calm   9.0 mph 78% 0.00 in meteobridge W/m2
06:14 34.2 °F 28.0 °F 30.25 in NNW 0.9 mph 1.0 mph 78% 0.00 in meteobridge W/m2
06:18 34.0 °F 27.9 °F 30.25 in Calm     78% 0.00 in meteobridge W/m2
06:23 33.8 °F 27.7 °F 30.25 in NE 2.0 mph 7.0 mph 78% 0.00 in meteobridge W/m2
06:27 33.8 °F 27.7 °F 30.25 in Calm   1.0 mph 78% 0.00 in meteobridge W/m2
06:34 33.6 °F 27.5 °F 30.25 in NNE 2.0 mph 2.0 mph 78% 0.00 in meteobridge W/m2
06:39 33.6 °F 27.9 °F 30.25 in Calm   1.0 mph 79% 0.00 in meteobridge W/m2
06:44 33.4 °F 27.3 °F 30.25 in Calm   4.0 mph 78% 0.00 in meteobridge W/m2
06:49 33.4 °F 27.7 °F 30.25 in Calm   5.0 mph 79% 0.00 in meteobridge W/m2
06:54 33.3 °F 27.1 °F 30.26 in Calm   6.0 mph 78% 0.00 in meteobridge W/m2
06:59 33.3 °F 27.1 °F 30.26 in Calm   1.0 mph 78% 0.00 in meteobridge W/m2
07:04 33.3 °F 27.1 °F 30.26 in Calm   4.0 mph 78% 0.00 in meteobridge W/m2
07:09 33.1 °F 27.0 °F 30.26 in Calm   8.0 mph 78% 0.00 in meteobridge W/m2
07:14 33.1 °F 27.0 °F 30.26 in West 2.9 mph 5.0 mph 78% 0.00 in meteobridge W/m2
07:19 33.1 °F 27.0 °F 30.26 in Calm   2.0 mph 78% 0.00 in meteobridge W/m2
07:24 33.1 °F 27.0 °F 30.27 in Calm   15.0 mph 78% 0.00 in meteobridge W/m2
07:29 33.3 °F 27.1 °F 30.27 in Calm   5.0 mph 78% 0.00 in meteobridge W/m2
07:34 33.3 °F 27.1 °F 30.27 in Calm   5.0 mph 78% 0.00 in meteobridge W/m2
07:39 33.3 °F 27.1 °F 30.27 in Calm   3.0 mph 78% 0.00 in meteobridge W/m2
07:43 33.3 °F 27.1 °F 30.27 in NW 0.9 mph 5.0 mph 78% 0.00 in meteobridge W/m2
07:48 33.4 °F 27.3 °F 30.27 in NNE 2.0 mph 6.0 mph 78% 0.00 in meteobridge W/m2
07:54 33.4 °F 27.3 °F 30.27 in NNW 2.9 mph 6.0 mph 78% 0.00 in meteobridge W/m2
07:59 33.6 °F 27.5 °F 30.28 in WSW 2.9 mph 10.0 mph 78% 0.00 in meteobridge W/m2
08:04 33.6 °F 27.5 °F 30.27 in Calm   3.0 mph 78% 0.00 in meteobridge W/m2
08:09 33.6 °F 27.5 °F 30.28 in Calm   7.0 mph 78% 0.00 in meteobridge W/m2
08:14 33.6 °F 27.5 °F 30.28 in Calm   5.0 mph 78% 0.00 in meteobridge W/m2
08:19 33.8 °F 27.7 °F 30.28 in Calm   4.0 mph 78% 0.00 in meteobridge W/m2
08:24 33.8 °F 27.7 °F 30.29 in NNW 0.9 mph 5.0 mph 78% 0.00 in meteobridge W/m2
08:29 34.0 °F 27.9 °F 30.29 in NW 2.0 mph 14.0 mph 78% 0.00 in meteobridge W/m2
08:34 34.0 °F 27.9 °F 30.29 in NNE 2.0 mph 5.0 mph 78% 0.00 in meteobridge W/m2
08:39 34.0 °F 27.9 °F 30.29 in WNW 0.9 mph 5.0 mph 78% 0.00 in meteobridge W/m2
08:44 34.2 °F 27.7 °F 30.29 in Calm   3.0 mph 77% 0.00 in meteobridge W/m2
08:49 34.3 °F 27.9 °F 30.29 in WNW 0.9 mph 5.0 mph 77% 0.00 in meteobridge W/m2
08:54 34.3 °F 27.9 °F 30.29 in Calm   8.0 mph 77% 0.00 in meteobridge W/m2
08:58 34.5 °F 27.7 °F 30.30 in WNW 2.9 mph 8.0 mph 76% 0.00 in meteobridge W/m2
09:03 34.5 °F 27.7 °F 30.30 in SW 0.9 mph 14.0 mph 76% 0.00 in meteobridge W/m2
09:09 34.9 °F 28.0 °F 30.30 in North 4.9 mph 9.0 mph 76% 0.00 in meteobridge W/m2
09:14 35.1 °F 28.2 °F 30.31 in West 4.0 mph 8.0 mph 76% 0.00 in meteobridge W/m2
09:19 35.2 °F 28.4 °F 30.30 in West 6.9 mph 14.0 mph 76% 0.00 in meteobridge W/m2
09:23 35.4 °F 28.2 °F 30.30 in NNW 2.0 mph 2.0 mph 75% 0.00 in meteobridge W/m2
09:29 35.8 °F 28.6 °F 30.31 in NNE 0.9 mph 5.0 mph 75% 0.00 in meteobridge W/m2
09:34 36.0 °F 28.8 °F 30.31 in NW 0.9 mph 6.0 mph 75% 0.00 in meteobridge W/m2
09:39 36.1 °F 28.9 °F 30.31 in WNW 2.0 mph 6.0 mph 75% 0.00 in meteobridge W/m2
09:44 36.7 °F 29.5 °F 30.31 in NW 0.9 mph 9.0 mph 75% 0.00 in meteobridge W/m2
09:49 36.9 °F 29.3 °F 30.32 in NW 0.9 mph 8.0 mph 74% 0.00 in meteobridge W/m2
09:54 36.9 °F 29.3 °F 30.32 in Calm     74% 0.00 in meteobridge W/m2
09:59 36.9 °F 28.9 °F 30.32 in North 0.9 mph 6.0 mph 73% 0.00 in meteobridge W/m2
10:04 37.0 °F 29.1 °F 30.32 in Calm     73% 0.00 in meteobridge W/m2
10:07 37.2 °F 30.0 °F 30.32 in ENE 4.0 mph 6.0 mph 75% 0.00 in meteobridge W/m2
10:14 37.6 °F 29.3 °F 30.32 in West 2.9 mph 6.0 mph 72% 0.00 in meteobridge W/m2
10:19 37.6 °F 29.3 °F 30.32 in Calm   9.0 mph 72% 0.00 in meteobridge W/m2
10:24 37.8 °F 29.1 °F 30.32 in Calm   4.0 mph 71% 0.00 in meteobridge W/m2
10:28 37.8 °F 29.1 °F 30.33 in Calm   1.0 mph 71% 0.00 in meteobridge W/m2
10:34 37.9 °F 29.3 °F 30.33 in Calm   2.0 mph 71% 0.00 in meteobridge W/m2
10:39 38.1 °F 28.9 °F 30.33 in West 0.9 mph 7.0 mph 69% 0.00 in meteobridge W/m2
10:44 38.5 °F 29.5 °F 30.33 in Calm   10.0 mph 70% 0.00 in meteobridge W/m2
10:49 38.5 °F 28.4 °F 30.34 in West 8.9 mph 11.0 mph 67% 0.00 in meteobridge W/m2
10:53 38.7 °F 28.9 °F 30.33 in WNW 0.9 mph 1.0 mph 68% 0.00 in meteobridge W/m2
10:58 38.7 °F 28.2 °F 30.33 in Calm   7.0 mph 66% 0.00 in meteobridge W/m2
11:03 38.8 °F 28.8 °F 30.33 in NNW 0.9 mph 5.0 mph 67% 0.00 in meteobridge W/m2
11:09 39.2 °F 28.8 °F 30.33 in NW 2.0 mph 7.0 mph 66% 0.00 in meteobridge W/m2
11:14 39.6 °F 29.5 °F 30.33 in WNW 6.0 mph 7.0 mph 67% 0.00 in meteobridge W/m2
11:19 39.7 °F 28.6 °F 30.33 in NNW 8.9 mph 17.0 mph 64% 0.00 in meteobridge W/m2
11:20 39.7 °F 28.2 °F 30.33 in WNW 10.1 mph 12.0 mph 63% 0.00 in meteobridge W/m2
11:29 39.9 °F 28.4 °F 30.33 in NNW 4.9 mph 11.0 mph 63% 0.00 in meteobridge W/m2
11:34 40.3 °F 28.8 °F 30.33 in NW 2.0 mph 8.0 mph 63% 0.00 in meteobridge W/m2
11:39 40.5 °F 28.4 °F 30.33 in NW 2.9 mph 5.0 mph 62% 0.00 in meteobridge W/m2
11:44 40.5 °F 28.0 °F 30.33 in Calm   5.0 mph 61% 0.00 in meteobridge W/m2
11:49 40.6 °F 28.6 °F 30.33 in Calm   6.0 mph 62% 0.00 in meteobridge W/m2
11:54 41.2 °F 29.1 °F 30.33 in WNW 0.9 mph 4.0 mph 62% 0.00 in meteobridge W/m2
11:59 41.5 °F 29.1 °F 30.33 in Calm   4.0 mph 61% 0.00 in meteobridge W/m2
12:04 41.7 °F 28.9 °F 30.33 in Calm   4.0 mph 60% 0.00 in meteobridge W/m2
12:09 41.9 °F 28.9 °F 30.33 in North 0.9 mph 1.0 mph 60% 0.00 in meteobridge W/m2
12:14 42.1 °F 28.4 °F 30.33 in NW 6.0 mph 7.0 mph 58% 0.00 in meteobridge W/m2
12:19 41.9 °F 28.6 °F 30.33 in WNW 2.0 mph 11.0 mph 59% 0.00 in meteobridge W/m2
12:24 42.1 °F 28.8 °F 30.33 in NE 0.9 mph 11.0 mph 59% 0.00 in meteobridge W/m2
12:29 42.1 °F 28.8 °F 30.32 in East 2.9 mph 4.0 mph 59% 0.00 in meteobridge W/m2
12:34 42.3 °F 28.6 °F 30.32 in Calm   12.0 mph 58% 0.00 in meteobridge W/m2
12:39 42.4 °F 29.5 °F 30.32 in NNW 6.0 mph 7.0 mph 60% 0.00 in meteobridge W/m2
12:43 42.8 °F 29.1 °F 30.32 in NNW 2.9 mph 6.0 mph 58% 0.00 in meteobridge W/m2
12:49 43.0 °F 28.8 °F 30.31 in ENE 4.0 mph 6.0 mph 57% 0.00 in meteobridge W/m2
12:54 43.3 °F 28.8 °F 30.31 in WNW 4.0 mph 10.0 mph 56% 0.00 in meteobridge W/m2
12:58 43.3 °F 28.2 °F 30.31 in Calm   7.0 mph 55% 0.00 in meteobridge W/m2
13:04 43.5 °F 28.9 °F 30.31 in NNE 4.0 mph 5.0 mph 56% 0.00 in meteobridge W/m2
13:09 43.7 °F 28.6 °F 30.30 in NE 0.9 mph 11.0 mph 55% 0.00 in meteobridge W/m2
13:14 43.9 °F 27.9 °F 30.30 in NW 2.0 mph 5.0 mph 53% 0.00 in meteobridge W/m2
13:19 43.9 °F 29.1 °F 30.30 in NE 2.9 mph 8.0 mph 56% 0.00 in meteobridge W/m2
13:24 43.9 °F 28.4 °F 30.30 in NW 4.9 mph 5.0 mph 54% 0.00 in meteobridge W/m2
13:29 44.1 °F 28.4 °F 30.30 in Calm   6.0 mph 54% 0.00 in meteobridge W/m2
13:34 44.1 °F 28.9 °F 30.30 in West 2.0 mph 14.0 mph 55% 0.00 in meteobridge W/m2
13:39 44.2 °F 28.6 °F 30.30 in Calm   8.0 mph 54% 0.00 in meteobridge W/m2
13:44 44.2 °F 28.2 °F 30.30 in Calm   9.0 mph 53% 0.00 in meteobridge W/m2
13:49 44.4 °F 28.4 °F 30.30 in Calm   2.0 mph 53% 0.00 in meteobridge W/m2
13:54 44.4 °F 28.4 °F 30.30 in WNW 4.0 mph 7.0 mph 53% 0.00 in meteobridge W/m2
13:59 44.4 °F 28.4 °F 30.30 in NW 8.1 mph 8.0 mph 53% 0.00 in meteobridge W/m2
14:04 44.4 °F 28.4 °F 30.30 in NW 0.9 mph 7.0 mph 53% 0.00 in meteobridge W/m2
14:09 44.6 °F 28.9 °F 30.30 in WNW 0.9 mph 3.0 mph 54% 0.00 in meteobridge W/m2
14:14 44.8 °F 28.8 °F 30.30 in Calm   2.0 mph 53% 0.00 in meteobridge W/m2
14:19 44.8 °F 28.2 °F 30.30 in NNW 0.9 mph 8.0 mph 52% 0.00 in meteobridge W/m2
14:24 44.8 °F 27.7 °F 30.31 in North 4.9 mph 12.0 mph 51% 0.00 in meteobridge W/m2
14:29 44.8 °F 27.7 °F 30.30 in Calm   6.0 mph 51% 0.00 in meteobridge W/m2
14:34 44.4 °F 27.9 °F 30.30 in WSW 2.9 mph 10.0 mph 52% 0.00 in meteobridge W/m2
14:38 44.4 °F 27.9 °F 30.30 in Calm   8.0 mph 52% 0.00 in meteobridge W/m2
14:44 44.4 °F 27.5 °F 30.30 in Calm   3.0 mph 51% 0.00 in meteobridge W/m2
14:49 44.4 °F 27.5 °F 30.30 in Calm   7.0 mph 51% 0.00 in meteobridge W/m2
14:53 44.4 °F 28.4 °F 30.30 in NW 2.0 mph 2.0 mph 53% 0.00 in meteobridge W/m2
14:59 44.4 °F 28.4 °F 30.30 in WNW 2.9 mph 6.0 mph 53% 0.00 in meteobridge W/m2
15:04 44.4 °F 28.4 °F 30.30 in Calm   3.0 mph 53% 0.00 in meteobridge W/m2
15:09 44.4 °F 28.8 °F 30.30 in Calm     54% 0.00 in meteobridge W/m2
15:14 44.4 °F 28.4 °F 30.30 in Calm   2.0 mph 53% 0.00 in meteobridge W/m2
15:19 44.6 °F 28.0 °F 30.30 in Calm   2.0 mph 52% 0.00 in meteobridge W/m2
15:24 44.4 °F 28.8 °F 30.30 in WNW 2.9 mph 5.0 mph 54% 0.00 in meteobridge W/m2
15:28 44.4 °F 28.4 °F 30.30 in Calm   1.0 mph 53% 0.00 in meteobridge W/m2
15:34 44.4 °F 27.5 °F 30.30 in NW 2.9 mph 8.0 mph 51% 0.00 in meteobridge W/m2
15:38 44.4 °F 28.4 °F 30.30 in Calm     53% 0.00 in meteobridge W/m2
15:44 44.4 °F 28.8 °F 30.30 in ENE 0.9 mph 3.0 mph 54% 0.00 in meteobridge W/m2
15:49 44.4 °F 28.4 °F 30.30 in Calm   2.0 mph 53% 0.00 in meteobridge W/m2
15:54 44.4 °F 28.4 °F 30.30 in NW 2.9 mph 4.0 mph 53% 0.00 in meteobridge W/m2
15:59 44.2 °F 28.2 °F 30.30 in Calm     53% 0.00 in meteobridge W/m2
16:04 44.2 °F 29.5 °F 30.30 in NW 0.9 mph 6.0 mph 56% 0.00 in meteobridge W/m2
16:09 44.1 °F 28.9 °F 30.30 in WSW 2.0 mph 3.0 mph 55% 0.00 in meteobridge W/m2
16:14 44.1 °F 27.5 °F 30.30 in Calm   7.0 mph 52% 0.00 in meteobridge W/m2
16:19 44.1 °F 28.9 °F 30.30 in Calm     55% 0.00 in meteobridge W/m2
16:23 43.9 °F 29.1 °F 30.30 in NW 0.9 mph 2.0 mph 56% 0.00 in meteobridge W/m2
16:29 43.7 °F 28.2 °F 30.30 in Calm   4.0 mph 54% 0.00 in meteobridge W/m2
16:34 43.5 °F 28.0 °F 30.30 in NE 0.9 mph 2.0 mph 54% 0.00 in meteobridge W/m2
16:39 43.5 °F 28.9 °F 30.30 in Calm   1.0 mph 56% 0.00 in meteobridge W/m2
16:44 43.3 °F 28.2 °F 30.30 in NE 2.9 mph 8.0 mph 55% 0.00 in meteobridge W/m2
16:49 43.2 °F 28.0 °F 30.31 in NNW 4.9 mph 6.0 mph 55% 0.00 in meteobridge W/m2
16:54 43.2 °F 28.6 °F 30.30 in Calm   4.0 mph 56% 0.00 in meteobridge W/m2
16:59 43.0 °F 28.4 °F 30.30 in Calm   1.0 mph 56% 0.00 in meteobridge W/m2
17:03 42.8 °F 28.2 °F 30.30 in NE 4.0 mph 5.0 mph 56% 0.00 in meteobridge W/m2
17:05 42.6 °F 28.0 °F 30.30 in Calm   5.0 mph 56% 0.00 in meteobridge W/m2
17:14 42.4 °F 27.9 °F 30.31 in Calm     56% 0.00 in meteobridge W/m2
17:19 42.3 °F 28.0 °F 30.31 in Calm   9.0 mph 57% 0.00 in meteobridge W/m2
17:24 41.9 °F 27.9 °F 30.31 in North 2.9 mph 3.0 mph 57% 0.00 in meteobridge W/m2
17:27 41.7 °F 28.4 °F 30.31 in WNW 0.9 mph 4.0 mph 59% 0.00 in meteobridge W/m2
17:34 41.4 °F 27.7 °F 30.31 in Calm   3.0 mph 58% 0.00 in meteobridge W/m2
17:39 41.2 °F 28.8 °F 30.31 in NE 0.9 mph 1.0 mph 61% 0.00 in meteobridge W/m2
17:44 40.8 °F 28.0 °F 30.31 in Calm   2.0 mph 60% 0.00 in meteobridge W/m2
17:48 40.6 °F 28.2 °F 30.31 in NNW 0.9 mph 1.0 mph 61% 0.00 in meteobridge W/m2
17:53 40.3 °F 28.8 °F 30.31 in Calm   3.0 mph 63% 0.00 in meteobridge W/m2
17:59 39.9 °F 28.8 °F 30.31 in West 2.0 mph 3.0 mph 64% 0.00 in meteobridge W/m2
18:04 39.7 °F 27.9 °F 30.31 in Calm   3.0 mph 62% 0.00 in meteobridge W/m2
18:09 39.6 °F 28.0 °F 30.32 in Calm   1.0 mph 63% 0.00 in meteobridge W/m2
18:14 39.4 °F 28.2 °F 30.32 in Calm   1.0 mph 64% 0.00 in meteobridge W/m2
18:18 39.4 °F 28.2 °F 30.32 in Calm     64% 0.00 in meteobridge W/m2
18:24 39.0 °F 28.6 °F 30.32 in WNW 2.0 mph 2.0 mph 66% 0.00 in meteobridge W/m2
18:29 38.7 °F 28.2 °F 30.32 in Calm   1.0 mph 66% 0.00 in meteobridge W/m2
18:33 38.5 °F 28.0 °F 30.32 in Calm   4.0 mph 66% 0.00 in meteobridge W/m2
18:39 38.3 °F 28.2 °F 30.32 in Calm   3.0 mph 67% 0.00 in meteobridge W/m2
18:44 38.1 °F 28.6 °F 30.32 in Calm     68% 0.00 in meteobridge W/m2
18:49 37.9 °F 28.8 °F 30.32 in Calm   2.0 mph 69% 0.00 in meteobridge W/m2
18:54 37.8 °F 28.6 °F 30.32 in West 0.9 mph 1.0 mph 69% 0.00 in meteobridge W/m2
18:59 37.6 °F 28.8 °F 30.32 in Calm   1.0 mph 70% 0.00 in meteobridge W/m2
19:03 37.4 °F 28.2 °F 30.32 in Calm   6.0 mph 69% 0.00 in meteobridge W/m2
19:09 37.4 °F 27.9 °F 30.32 in Calm   1.0 mph 68% 0.00 in meteobridge W/m2
19:14 37.2 °F 28.0 °F 30.32 in NNW 0.9 mph 1.0 mph 69% 0.00 in meteobridge W/m2
19:19 37.0 °F 27.5 °F 30.32 in Calm   1.0 mph 68% 0.00 in meteobridge W/m2
19:23 37.0 °F 27.9 °F 30.32 in Calm     69% 0.00 in meteobridge W/m2
19:29 37.0 °F 28.2 °F 30.32 in NNW 0.9 mph 1.0 mph 70% 0.00 in meteobridge W/m2
19:34 36.9 °F 28.0 °F 30.32 in Calm     70% 0.00 in meteobridge W/m2
19:38 36.7 °F 27.9 °F 30.32 in Calm     70% 0.00 in meteobridge W/m2
19:44 36.5 °F 28.4 °F 30.32 in Calm     72% 0.00 in meteobridge W/m2
19:49 36.1 °F 27.7 °F 30.32 in Calm     71% 0.00 in meteobridge W/m2
19:52 36.1 °F 28.0 °F 30.32 in Calm     72% 0.00 in meteobridge W/m2
19:57 35.8 °F 28.0 °F 30.32 in Calm     73% 0.00 in meteobridge W/m2
20:04 35.2 °F 27.9 °F 30.32 in Calm     74% 0.00 in meteobridge W/m2
20:09 34.9 °F 27.7 °F 30.32 in Calm     75% 0.00 in meteobridge W/m2
20:13 34.7 °F 27.9 °F 30.32 in Calm     76% 0.00 in meteobridge W/m2
20:17 34.5 °F 27.7 °F 30.32 in Calm     76% 0.00 in meteobridge W/m2
20:24 34.0 °F 27.5 °F 30.33 in Calm     77% 0.00 in meteobridge W/m2
20:29 33.6 °F 27.1 °F 30.32 in Calm     77% 0.00 in meteobridge W/m2
20:33 33.4 °F 27.0 °F 30.32 in Calm     77% 0.00 in meteobridge W/m2
20:38 33.3 °F 26.8 °F 30.33 in Calm     77% 0.00 in meteobridge W/m2
20:44 32.9 °F 26.4 °F 30.33 in Calm     77% 0.00 in meteobridge W/m2
20:49 32.5 °F 26.1 °F 30.33 in Calm     77% 0.00 in meteobridge W/m2
20:53 32.4 °F 26.2 °F 30.33 in Calm     78% 0.00 in meteobridge W/m2
20:57 32.2 °F 26.1 °F 30.33 in Calm     78% 0.00 in meteobridge W/m2
21:04 31.6 °F 25.3 °F 30.33 in Calm     77% 0.00 in meteobridge W/m2
21:09 31.5 °F 25.2 °F 30.33 in Calm     77% 0.00 in meteobridge W/m2
21:14 31.5 °F 24.8 °F 30.33 in Calm     76% 0.00 in meteobridge W/m2
21:19 31.1 °F 24.4 °F 30.33 in Calm     76% 0.00 in meteobridge W/m2
21:24 30.9 °F 24.3 °F 30.33 in Calm     76% 0.00 in meteobridge W/m2
21:28 30.7 °F 23.7 °F 30.33 in Calm     75% 0.00 in meteobridge W/m2
21:34 30.7 °F 23.7 °F 30.33 in Calm     75% 0.00 in meteobridge W/m2
21:39 30.6 °F 23.5 °F 30.33 in Calm     75% 0.00 in meteobridge W/m2
21:44 30.6 °F 23.2 °F 30.33 in Calm     74% 0.00 in meteobridge W/m2
21:46 30.6 °F 23.2 °F 30.33 in Calm     74% 0.00 in meteobridge W/m2
21:53 30.6 °F 23.0 °F 30.33 in Calm     73% 0.00 in meteobridge W/m2
21:59 30.6 °F 22.6 °F 30.33 in Calm     72% 0.00 in meteobridge W/m2
22:03 30.7 °F 22.8 °F 30.33 in Calm     72% 0.00 in meteobridge W/m2
22:08 30.9 °F 23.4 °F 30.33 in Calm     73% 0.00 in meteobridge W/m2
22:14 30.9 °F 23.0 °F 30.33 in Calm     72% 0.00 in meteobridge W/m2
22:18 30.9 °F 23.4 °F 30.33 in Calm     73% 0.00 in meteobridge W/m2
22:23 30.9 °F 23.4 °F 30.33 in Calm     73% 0.00 in meteobridge W/m2
22:29 30.9 °F 23.0 °F 30.34 in Calm     72% 0.00 in meteobridge W/m2
22:33 30.9 °F 23.0 °F 30.34 in Calm     72% 0.00 in meteobridge W/m2
22:36 30.9 °F 23.4 °F 30.34 in Calm     73% 0.00 in meteobridge W/m2
22:44 30.7 °F 23.2 °F 30.34 in Calm     73% 0.00 in meteobridge W/m2
22:47 30.6 °F 23.0 °F 30.35 in Calm     73% 0.00 in meteobridge W/m2
22:54 30.4 °F 22.8 °F 30.35 in Calm     73% 0.00 in meteobridge W/m2
22:58 30.4 °F 22.5 °F 30.35 in Calm     72% 0.00 in meteobridge W/m2
23:04 30.0 °F 22.1 °F 30.35 in Calm     72% 0.00 in meteobridge W/m2
23:07 30.0 °F 22.1 °F 30.35 in Calm     72% 0.00 in meteobridge W/m2
23:14 29.8 °F 21.6 °F 30.35 in Calm     71% 0.00 in meteobridge W/m2
23:19 29.7 °F 21.4 °F 30.35 in Calm     71% 0.00 in meteobridge W/m2
23:24 29.7 °F 21.4 °F 30.35 in Calm     71% 0.00 in meteobridge W/m2
23:29 29.7 °F 21.0 °F 30.35 in Calm     70% 0.00 in meteobridge W/m2
23:32 29.7 °F 21.0 °F 30.35 in Calm     70% 0.00 in meteobridge W/m2
23:37 29.5 °F 20.8 °F 30.35 in Calm     70% 0.00 in meteobridge W/m2
23:43 29.5 °F 20.8 °F 30.35 in Calm     70% 0.00 in meteobridge W/m2
23:47 29.3 °F 20.7 °F 30.35 in Calm     70% 0.00 in meteobridge W/m2
23:54 29.3 °F 20.7 °F 30.35 in Calm     70% 0.00 in meteobridge W/m2
23:57 29.1 °F 20.5 °F 30.35 in Calm     70% 0.00 in meteobridge W/m2
Juneau County Weather
Compliments of Weather Underground - 2.5 mb